Home   Weather   Carson City   Past weeks

Flag for USA Past Weather in Carson City, Nevada, USA — Yesterday and Last 2 Weeks

46 °F

Passing clouds.

Feels Like: 46 °F
Forecast: 45 / 70 °F
Wind: No wind

Location: Reno Tahoe International Airport

Current Time: Oct 26, 2016 at 8:24:48 AM

Latest Report: Oct 26, 2016 at 7:55 AM

Visibility: 10 mi

Pressure: 30.04 "Hg (25.26 "Hg at 1425m altitude)

Humidity: 68%

Dew Point: 36 °F

Location of Carson CityLocation

Past Weather in Carson City — Graph


Carson City Temperature Yesterday

Maximum temperature yesterday: 68 °F (at 11:55 AM)
Minimum temperature yesterday: 53 °F (at 1:55 AM)
Average temperature yesterday: 59 °F

High & Low Weather Summary for the Past Weeks

High78 °F (Oct 11, 2:55 PM)93% (Oct 15, 9:55 PM)30.37 "Hg (Oct 15, 9:55 PM)
Low35 °F (Oct 19, 3:55 AM)9% (Oct 11, 2:55 PM)29.58 "Hg (Oct 15, 2:55 PM)
Average55 °F48%29.95 "Hg
* Reported Oct 11 6:55 AM — Oct 26 6:55 AM, Carson City, Weather by CustomWeather, © 2016

Note: Actual official high and low records may vary slightly from our data, if they occured in-between our weather recording intervals... More about our weather records


Carson City Weather History for the Previous 24 Hours

Scroll right to see more
Time TempWeatherWind HumidityBarometerVisibility
6:55 AM
Wed, Oct 26
47 °FPassing clouds.5 mph64%30.02 "Hg10 mi
5:55 AM48 °FPassing clouds.No wind61%30.01 "Hg10 mi
4:55 AM49 °FPassing clouds.No wind59%30.01 "Hg10 mi
3:55 AM51 °FPassing clouds.3 mph63%30.00 "Hg10 mi
2:55 AM53 °FPassing clouds.No wind59%30.01 "Hg10 mi
1:55 AM53 °FPassing clouds.No wind59%30.02 "Hg10 mi
12:55 AM53 °FPassing clouds.5 mph59%30.02 "Hg10 mi
11:55 PM
Tue, Oct 25
55 °FPassing clouds.No wind49%30.02 "Hg10 mi
10:55 PM57 °FPassing clouds.6 mph46%30.04 "Hg10 mi
9:55 PM59 °FPartly cloudy.No wind44%30.03 "Hg10 mi
8:55 PM59 °FPassing clouds.3 mph48%30.03 "Hg10 mi
7:55 PM60 °FPassing clouds.6 mph46%30.04 "Hg10 mi
6:55 PM61 °FPassing clouds.6 mph42%30.03 "Hg10 mi
5:55 PM62 °FPartly sunny.10 mph41%30.00 "Hg10 mi
4:55 PM63 °FPartly sunny.8 mph40%29.99 "Hg10 mi
3:55 PM64 °FPartly sunny.6 mph38%30.01 "Hg10 mi
2:55 PM65 °FPartly sunny.20 mph37%29.97 "Hg10 mi
1:55 PM65 °FPartly sunny.18 mph36%29.96 "Hg10 mi
12:55 PM68 °FPartly sunny.21 mph31%29.95 "Hg10 mi
11:55 AM68 °FPartly sunny.13 mph31%29.98 "Hg10 mi
10:55 AM61 °FPartly sunny.5 mph34%30.01 "Hg10 mi
9:55 AM60 °FPartly sunny.No wind32%30.01 "Hg10 mi
8:55 AM58 °FPartly sunny.12 mph36%30.00 "Hg10 mi
Weather by CustomWeather, © 2016

See weather overviewHow to use our weather pages